Terug naar catalogus

COSMOS 2298

ActiefCommunicatieLEO
NORAD 23431·PAYLOAD·🇷🇺 Russia

Gelanceerd Dec 20, 1994 vanaf Plesetsk Cosmodrome

Loading…

Volgende Passages (komende 24 uur)

TLE

VersSource: Space-Track

Epoch: Sep 14, 2026, 07:15 UTC

1 23431U 94083A   26257.30257909  .00000074  00000-0  37705-4 0  9991
2 23431  74.0317 345.6063 0017270 265.8105  94.1071 14.31199932656436

Volg COSMOS 2298 in realtime met AllMySat

Download on the App Store